[[{"header":{"parameterUnit":"m.s-1","parameterCategory":1,"la1":30.2991,"la2":30.254,"lo1":-89.0895,"lo2":-89.0444,"dy":0.0017,"dx":0.0017,"nx":28,"ny":28,"refTime":"2024-03-05T09:00:00:Z","depth":0,"parameterNumber":2,"parameterNumberName":"U-component_of_WINDS"},"data":[0,0,0,0,0,0,0,0,0,0,0,0,0,0,0,0,0,0,0,0,0,0,0,0,0,0,0,0,0,0,0,0,0,0,0,0,0,0,0,0,0,0,0,0,0,0,0,0,0,0,0,0,0,0,0,0,0,0,0.2424,0.2425,0,0.2504,0.2505,0.2506,0.2532,0.2532,0.2531,0.2531,0.2615,0.2618,0.262,0,0,0,0,0,0,0,0,0,0,0,0,0,0.23,0.2302,0.2424,0.2425,0.2426,0.2504,0.2505,0.2506,0.2532,0.2532,0.2531,0.2531,0.2614,0.2617,0.262,0,0,0,0,0,0,0,0,0,0,0,0,0,0.2364,0.2302,0.2424,0.2449,0.2452,0.2503,0.2505,0.2506,0.2532,0.2532,0.2531,0.2531,0.2613,0.2617,0.2621,0.2655,0,0,0.2633,0.2634,0,0,0,0,0,0,0,0,0.236,0.2368,0.2444,0.2447,0.245,0.2507,0.2492,0.2556,0.2532,0.2502,0.2531,0.253,0.258,0.2586,0.2603,0.2659,0.2662,0.2633,0.2635,0.2637,0.2638,0,0,0,0,0,0,0,0.2356,0.2365,0.2456,0.2445,0.2449,0.2457,0.2466,0.2504,0.2543,0.2504,0.2506,0.2515,0.2582,0.2599,0.2605,0.2664,0.2633,0.2636,0.2639,0.264,0.2754,0.2755,0,0,0,0,0,0,0.2347,0.2361,0.2453,0.2458,0.2403,0.246,0.2469,0.249,0.2542,0.255,0.2516,0.2516,0.2593,0.26,0.2608,0.2652,0.2637,0.2641,0.2643,0.2753,0.2754,0.2755,0,0,0,0,0,0,0.2344,0.2355,0.245,0.241,0.2423,0.2462,0.2485,0.2491,0.2509,0.2551,0.2558,0.2526,0.2592,0.2602,0.2643,0.2655,0.2642,0.2646,0.2752,0.2754,0.2755,0.274,0,0,0,0,0,0,0.234,0.2353,0.2366,0.241,0.2425,0.2483,0.2486,0.2493,0.2515,0.2516,0.2562,0.257,0.2593,0.2637,0.2647,0.2661,0.2649,0.2752,0.2753,0.2754,0.274,0.2741,0.2742,0,0,0,0,0,0.2336,0.2359,0.2366,0.2377,0.2441,0.2483,0.2492,0.2517,0.2516,0.2529,0.2557,0.2568,0.2653,0.2641,0.2652,0.2667,0.2751,0.2753,0.2754,0.274,0.2741,0.2742,0,0,0,0,0,0,0.2315,0.2365,0.2374,0.2412,0.2443,0.2488,0.2505,0.2517,0.255,0.2551,0.2582,0.2592,0.2631,0.2653,0.264,0.2704,0.2702,0.2706,0.2688,0.2689,0.269,0.2684,0.2652,0,0,0,0,0,0.2315,0.2344,0.2387,0.2416,0.2431,0.2466,0.2485,0.2502,0.2536,0.255,0.258,0.2614,0.2648,0.267,0.2704,0.2744,0.2755,0.276,0.276,0.2761,0.2764,0.2788,0.2791,0.276,0.276,0.276,0,0,0.2315,0.2346,0.2362,0.2413,0.2439,0.247,0.2477,0.2508,0.2532,0.2555,0.2595,0.2619,0.2658,0.2699,0.2719,0.2719,0.2775,0.2763,0.2763,0.2766,0.279,0.2793,0.2796,0.2761,0.2761,0.2761,0,0,0.2331,0.2357,0.2385,0.2411,0.245,0.2473,0.248,0.2523,0.254,0.2581,0.2599,0.2628,0.2686,0.2714,0.2736,0.2764,0.2776,0.2774,0.2779,0.2802,0.2804,0.2807,0.2818,0.2821,0.2777,0.2777,0.2777,0,0.2326,0.2372,0.2398,0.2429,0.2452,0.2473,0.2503,0.2527,0.2576,0.2592,0.2591,0.2665,0.2694,0.2742,0.2749,0.2766,0.2776,0.2769,0.2802,0.2804,0.2807,0.2818,0.2822,0.2777,0.2777,0.2777,0.2777,0,0.2365,0.2397,0.2415,0.2461,0.2486,0.2516,0.2548,0.257,0.2585,0.2608,0.2651,0.2685,0.2727,0.274,0.2755,0.2791,0.279,0.2795,0.2795,0.2809,0.282,0.2824,0.2776,0.2776,0.2776,0.2776,0,0,0.2369,0.243,0.2436,0.2458,0.2504,0.253,0.2562,0.2602,0.2621,0.2655,0.2683,0.2732,0.2738,0.2763,0.2782,0.2802,0.2824,0.2805,0.2807,0.2808,0.2867,0.2863,0.2867,0.2832,0.2833,0.2834,0.2864,0,0.2391,0.2448,0.2473,0.252,0.255,0.2572,0.2601,0.2633,0.2656,0.2686,0.2712,0.2747,0.2751,0.2766,0.2788,0.2816,0.2836,0.2815,0.2861,0.2862,0.285,0.2873,0.2868,0.2895,0.2868,0.2869,0.287,0,0.2425,0.2458,0.2507,0.2551,0.2564,0.2589,0.2629,0.2657,0.2695,0.2711,0.2739,0.2757,0.2793,0.279,0.2841,0.2826,0.2847,0.2864,0.2866,0.2871,0.2866,0.288,0.2904,0.2908,0.2876,0.2876,0.2875,0,0.2424,0.2481,0.2518,0.2536,0.2587,0.2605,0.2627,0.2664,0.2687,0.2723,0.2738,0.2777,0.2799,0.283,0.2859,0.2853,0.2908,0.2907,0.2923,0.2922,0.2933,0.2932,0.2962,0.2946,0.2946,0.2946,0.2946,0,0.2446,0.2476,0.2518,0.2541,0.2576,0.2605,0.2639,0.2663,0.2696,0.2725,0.2747,0.2774,0.281,0.2843,0.2866,0.2905,0.2915,0.293,0.2935,0.2928,0.2926,0.2942,0.2941,0.2947,0.2947,0.2946,0.2946,0,0.2451,0.248,0.2522,0.2568,0.258,0.2604,0.2643,0.2667,0.2692,0.2729,0.2739,0.2778,0.2818,0.2849,0.2901,0.2917,0.2959,0.2965,0.2945,0.2949,0.2963,0.2962,0.3004,0.3012,0.299,0.299,0.299,0,0.2463,0.2486,0.2534,0.2555,0.2577,0.261,0.2634,0.2664,0.2689,0.2734,0.2753,0.2794,0.2828,0.289,0.2924,0.2964,0.2972,0.2984,0.2978,0.297,0.2973,0.2971,0.2974,0.2984,0.2984,0.2985,0.2985,0,0.2482,0.2496,0.2528,0.2567,0.2595,0.2627,0.2659,0.2675,0.2712,0.2739,0.2779,0.2805,0.2858,0.2899,0.2943,0.2967,0.2983,0.2986,0.2992,0.2985,0.2973,0.298,0.2948,0.2985,0.2985,0.2985,0.2985,0.2985,0.2491,0.2513,0.2551,0.2587,0.2615,0.2645,0.267,0.2698,0.2732,0.2777,0.2793,0.2835,0.2874,0.2934,0.2959,0.2993,0.2995,0.3003,0.3006,0.3007,0.3007,0.2967,0.3002,0.3002,0.3002,0.3002,0.3002,0,0.2512,0.2537,0.2571,0.2615,0.2645,0.2656,0.2693,0.2717,0.2753,0.2788,0.2821,0.2868,0.2908,0.2945,0.2987,0.3008,0.3016,0.3018,0.3017,0.3022,0.3003,0.2993,0.301,0.301,0.301,0.301,0.301,0.301,0.2526,0.2564,0.2583,0.2636,0.2662,0.2702,0.2723,0.2751,0.2779,0.283,0.2864,0.2887,0.2924,0.2969,0.3007,0.3017,0.3032,0.3032,0.3044,0.3025,0.3024,0.3022,0.3014,0.3035,0.3035,0.3061,0.3061,0.3062]},{"header":{"parameterUnit":"m.s-1","parameterCategory":1,"la1":30.2991,"la2":30.254,"lo1":-89.0895,"lo2":-89.0444,"dy":0.0017,"dx":0.0017,"nx":28,"ny":28,"refTime":"2024-03-05T09:00:00:Z","depth":0,"parameterNumber":3,"parameterNumberName":"V-component_of_WINDS"},"data":[0,0,0,0,0,0,0,0,0,0,0,0,0,0,0,0,0,0,0,0,0,0,0,0,0,0,0,0,0,0,0,0,0,0,0,0,0,0,0,0,0,0,0,0,0,0,0,0,0,0,0,0,0,0,0,0,0,0,-1.8288,-1.8287,0,-1.8167,-1.8166,-1.8164,-1.8183,-1.8186,-1.8188,-1.819,-1.8061,-1.8056,-1.805,0,0,0,0,0,0,0,0,0,0,0,0,0,-1.8531,-1.8527,-1.8288,-1.8287,-1.8285,-1.8167,-1.8166,-1.8164,-1.8183,-1.8186,-1.8188,-1.8191,-1.8063,-1.8056,-1.805,0,0,0,0,0,0,0,0,0,0,0,0,0,-1.8419,-1.8525,-1.8288,-1.828,-1.8279,-1.8168,-1.8166,-1.8164,-1.8183,-1.8186,-1.8189,-1.8192,-1.8065,-1.8057,-1.8049,-1.7937,0,0,-1.8024,-1.8021,0,0,0,0,0,0,0,0,-1.8426,-1.841,-1.8283,-1.8281,-1.8278,-1.8194,-1.8204,-1.8087,-1.8182,-1.8219,-1.819,-1.8193,-1.8102,-1.8091,-1.8061,-1.7931,-1.7925,-1.8024,-1.8019,-1.8015,-1.8013,0,0,0,0,0,0,0,-1.8433,-1.8416,-1.824,-1.8281,-1.8278,-1.8282,-1.8269,-1.8182,-1.8144,-1.8216,-1.8217,-1.8203,-1.8101,-1.8069,-1.8059,-1.7923,-1.8024,-1.8017,-1.8012,-1.8008,-1.7695,-1.7692,0,0,0,0,0,0,-1.8444,-1.8422,-1.8244,-1.8236,-1.8362,-1.8275,-1.8261,-1.8218,-1.8145,-1.8137,-1.82,-1.8204,-1.8081,-1.8068,-1.8054,-1.7919,-1.8015,-1.8008,-1.8003,-1.7699,-1.7695,-1.7691,0,0,0,0,0,0,-1.8449,-1.8428,-1.8249,-1.833,-1.8307,-1.8267,-1.8219,-1.8214,-1.8182,-1.8134,-1.8126,-1.8174,-1.8083,-1.8065,-1.7966,-1.7914,-1.8004,-1.7997,-1.7703,-1.7697,-1.7693,-1.7647,0,0,0,0,0,0,-1.8456,-1.843,-1.8387,-1.8329,-1.8303,-1.8164,-1.8215,-1.8209,-1.8168,-1.8172,-1.8107,-1.81,-1.8084,-1.7978,-1.7958,-1.7905,-1.799,-1.7707,-1.77,-1.7694,-1.7652,-1.764,-1.763,0,0,0,0,0,-1.8465,-1.8378,-1.8385,-1.8364,-1.8249,-1.8161,-1.8146,-1.8131,-1.8164,-1.8121,-1.809,-1.8102,-1.7924,-1.7968,-1.7946,-1.7889,-1.771,-1.7702,-1.7695,-1.7657,-1.7643,-1.763,0,0,0,0,0,0,-1.8429,-1.837,-1.8377,-1.8269,-1.822,-1.8164,-1.8109,-1.8116,-1.8055,-1.8061,-1.8045,-1.803,-1.793,-1.7899,-1.795,-1.7777,-1.7821,-1.7809,-1.7801,-1.7786,-1.7775,-1.7784,-1.7984,0,0,0,0,0,-1.8409,-1.8344,-1.8295,-1.8204,-1.8179,-1.8149,-1.8109,-1.8103,-1.8051,-1.803,-1.7992,-1.7939,-1.7872,-1.7827,-1.7762,-1.7649,-1.7635,-1.7599,-1.7588,-1.7579,-1.7568,-1.7506,-1.749,-1.7665,-1.7665,-1.7665,0,0,-1.8366,-1.8326,-1.8285,-1.8196,-1.8157,-1.8089,-1.8131,-1.8056,-1.8005,-1.8018,-1.7922,-1.7893,-1.7833,-1.7727,-1.7678,-1.7699,-1.7516,-1.7569,-1.7562,-1.7555,-1.7496,-1.748,-1.7465,-1.766,-1.7661,-1.7662,0,0,-1.8253,-1.8216,-1.8137,-1.8098,-1.804,-1.802,-1.8002,-1.7945,-1.7926,-1.7831,-1.7839,-1.7778,-1.7661,-1.7619,-1.7583,-1.7456,-1.7465,-1.7435,-1.7376,-1.7316,-1.7302,-1.729,-1.7245,-1.7229,-1.7425,-1.7424,-1.7424,0,-1.8206,-1.8106,-1.8095,-1.802,-1.7981,-1.7992,-1.7911,-1.7873,-1.7796,-1.7768,-1.7793,-1.7648,-1.7609,-1.7493,-1.7462,-1.7432,-1.741,-1.7442,-1.7306,-1.7293,-1.7281,-1.7238,-1.7222,-1.7421,-1.7422,-1.7422,-1.7422,0,-1.8051,-1.7981,-1.7924,-1.7852,-1.7806,-1.7728,-1.7705,-1.766,-1.7658,-1.7635,-1.7538,-1.7492,-1.7419,-1.7391,-1.7387,-1.7274,-1.7289,-1.731,-1.7354,-1.7262,-1.7221,-1.7205,-1.7417,-1.7418,-1.7419,-1.742,0,0,-1.791,-1.7836,-1.7815,-1.7783,-1.7721,-1.7665,-1.7589,-1.7519,-1.748,-1.7427,-1.7362,-1.7265,-1.7284,-1.7242,-1.7234,-1.7182,-1.7085,-1.7209,-1.7207,-1.7188,-1.6959,-1.6944,-1.6925,-1.7091,-1.7088,-1.7085,-1.6964,0,-1.7792,-1.7658,-1.7647,-1.7526,-1.7462,-1.7472,-1.7405,-1.7359,-1.7336,-1.7277,-1.7252,-1.7183,-1.7214,-1.7189,-1.7138,-1.7108,-1.7039,-1.7116,-1.703,-1.7027,-1.7044,-1.6904,-1.6887,-1.6774,-1.6948,-1.6945,-1.6943,0,-1.7635,-1.758,-1.7453,-1.7402,-1.7374,-1.7314,-1.725,-1.7194,-1.7142,-1.7129,-1.7084,-1.7084,-1.7004,-1.7052,-1.6942,-1.6995,-1.6959,-1.6939,-1.6934,-1.6925,-1.6979,-1.689,-1.6738,-1.6721,-1.6918,-1.692,-1.6922,0,-1.7546,-1.7439,-1.7351,-1.7323,-1.726,-1.7218,-1.719,-1.7141,-1.7101,-1.7044,-1.7018,-1.6952,-1.6916,-1.6865,-1.6846,-1.6883,-1.6737,-1.6783,-1.6724,-1.6724,-1.6692,-1.6694,-1.6531,-1.6669,-1.6669,-1.667,-1.667,0,-1.7414,-1.7336,-1.731,-1.7255,-1.7168,-1.7156,-1.707,-1.7044,-1.7001,-1.6941,-1.6945,-1.6888,-1.6867,-1.6806,-1.6791,-1.6703,-1.6686,-1.6673,-1.667,-1.6673,-1.6675,-1.6648,-1.6656,-1.6665,-1.6666,-1.6667,-1.6668,0,-1.7299,-1.7278,-1.7182,-1.7132,-1.7117,-1.7056,-1.7012,-1.6959,-1.6938,-1.6862,-1.6843,-1.681,-1.6739,-1.6716,-1.6629,-1.6619,-1.6516,-1.652,-1.6534,-1.6534,-1.6476,-1.6482,-1.629,-1.6265,-1.6419,-1.6418,-1.6417,0,-1.7216,-1.7157,-1.7101,-1.7062,-1.7033,-1.6969,-1.6929,-1.6915,-1.6872,-1.681,-1.6764,-1.6694,-1.6638,-1.6524,-1.6491,-1.6425,-1.6427,-1.6365,-1.6417,-1.6422,-1.6427,-1.6431,-1.6425,-1.6355,-1.6353,-1.6352,-1.6351,0,-1.7071,-1.7064,-1.7007,-1.6945,-1.6897,-1.6848,-1.68,-1.6767,-1.6747,-1.6698,-1.6627,-1.6583,-1.6497,-1.6427,-1.6361,-1.633,-1.6337,-1.6335,-1.6318,-1.632,-1.6331,-1.6324,-1.6507,-1.6339,-1.634,-1.6341,-1.6342,-1.6342,-1.6969,-1.6918,-1.6871,-1.6807,-1.6771,-1.6726,-1.6674,-1.6649,-1.6589,-1.6519,-1.6514,-1.6437,-1.6388,-1.63,-1.6266,-1.6205,-1.6223,-1.6198,-1.6191,-1.6185,-1.6181,-1.6341,-1.6193,-1.6193,-1.6194,-1.6194,-1.6194,0,-1.6825,-1.6796,-1.6738,-1.6672,-1.6622,-1.6635,-1.6583,-1.6539,-1.6472,-1.6427,-1.6372,-1.6291,-1.6224,-1.6187,-1.612,-1.6079,-1.608,-1.6062,-1.6064,-1.6057,-1.6169,-1.6191,-1.6062,-1.6062,-1.6062,-1.6062,-1.6062,-1.6062,-1.6744,-1.6658,-1.6646,-1.6542,-1.6513,-1.644,-1.6409,-1.6368,-1.6332,-1.6242,-1.6187,-1.6165,-1.6123,-1.6053,-1.5993,-1.5984,-1.5959,-1.5938,-1.5931,-1.6036,-1.6049,-1.6062,-1.6083,-1.5933,-1.5933,-1.5825,-1.5824,-1.5823]}]]